Saint Bonnet de Bellac- Haute Vienne - France
Donnes mto: samedi, 18/02/2012
Date Horaire Temp. E. Hum. E. P.atmo. Pluie Vent Direction Direction Ensoleilleme Solaire P. de rose Temp au vent Rafales
18/02/2012 00:00 -0,9 C 88 % 1024,2 hPa 0,0 mm 0,0 km/h (0 Bft) E-SE 112 0 min 0 W/m -2,6 C -0,9 C 0,0 km/h (0 Bft)
18/02/2012 00:10 -1,1 C 89 % 1024,0 hPa 0,0 mm 0,0 km/h (0 Bft) E-SE 112 0 min 0 W/m -2,7 C -1,1 C 0,0 km/h (0 Bft)
18/02/2012 00:20 -1,2 C 88 % 1023,9 hPa 0,0 mm 0,0 km/h (0 Bft) E-SE 112 0 min 0 W/m -2,9 C -1,2 C 0,0 km/h (0 Bft)
18/02/2012 00:30 -1,2 C 89 % 1024,0 hPa 0,0 mm 0,0 km/h (0 Bft) E-SE 112 0 min 0 W/m -2,8 C -1,2 C 0,0 km/h (0 Bft)
18/02/2012 00:40 -1,4 C 89 % 1024,0 hPa 0,0 mm 0,0 km/h (0 Bft) E-SE 112 0 min 0 W/m -3,0 C -1,4 C 0,0 km/h (0 Bft)
18/02/2012 00:50 -1,4 C 89 % 1023,9 hPa 0,0 mm 0,0 km/h (0 Bft) E-SE 112 0 min 0 W/m -3,0 C -1,4 C 0,0 km/h (0 Bft)
18/02/2012 01:00 -1,5 C 89 % 1023,8 hPa 0,0 mm 0,0 km/h (0 Bft) E-SE 112 0 min 0 W/m -3,1 C -1,5 C 0,0 km/h (0 Bft)
18/02/2012 01:10 -1,6 C 89 % 1023,6 hPa 0,0 mm 0,0 km/h (0 Bft) E-SE 112 0 min 0 W/m -3,2 C -1,6 C 0,0 km/h (0 Bft)
18/02/2012 01:20 -1,7 C 89 % 1023,6 hPa 0,0 mm 0,0 km/h (0 Bft) E-SE 112 0 min 0 W/m -3,3 C -1,7 C 0,0 km/h (0 Bft)
18/02/2012 01:30 -1,7 C 89 % 1023,6 hPa 0,0 mm 0,0 km/h (0 Bft) E-SE 112 0 min 0 W/m -3,3 C -1,7 C 0,0 km/h (0 Bft)
18/02/2012 01:40 -1,8 C 89 % 1023,5 hPa 0,0 mm 0,0 km/h (0 Bft) E-SE 112 0 min 0 W/m -3,4 C -1,8 C 0,0 km/h (0 Bft)
18/02/2012 01:50 -1,8 C 90 % 1023,5 hPa 0,0 mm 0,0 km/h (0 Bft) E-SE 112 0 min 0 W/m -3,2 C -1,8 C 0,0 km/h (0 Bft)
18/02/2012 02:02 -1,8 C 90 % 1023,3 hPa 0,0 mm 0,0 km/h (0 Bft) E-SE 112 0 min 0 W/m -3,2 C -1,8 C 0,0 km/h (0 Bft)
18/02/2012 02:10 -1,8 C 90 % 1023,2 hPa 0,0 mm 0,0 km/h (0 Bft) E-SE 112 0 min 0 W/m -3,2 C -1,8 C 0,0 km/h (0 Bft)
18/02/2012 02:20 -1,7 C 90 % 1023,3 hPa 0,0 mm 0,0 km/h (0 Bft) E 90 0 min 0 W/m -3,1 C -1,7 C 0,0 km/h (0 Bft)
18/02/2012 02:30 -1,7 C 90 % 1023,2 hPa 0,0 mm 0,0 km/h (0 Bft) E 90 0 min 0 W/m -3,1 C -1,7 C 0,0 km/h (0 Bft)
18/02/2012 02:40 -1,8 C 90 % 1023,4 hPa 0,0 mm 0,0 km/h (0 Bft) SE 135 0 min 0 W/m -3,2 C -1,8 C 0,0 km/h (0 Bft)
18/02/2012 02:50 -1,9 C 90 % 1023,2 hPa 0,0 mm 0,0 km/h (0 Bft) E-SE 112 0 min 0 W/m -3,3 C -1,9 C 0,0 km/h (0 Bft)
18/02/2012 03:00 -2,0 C 90 % 1023,2 hPa 0,0 mm 0,0 km/h (0 Bft) E-SE 112 0 min 0 W/m -3,4 C -2,0 C 0,0 km/h (0 Bft)
18/02/2012 03:10 -2,1 C 90 % 1023,1 hPa 0,0 mm 0,0 km/h (0 Bft) E-SE 112 0 min 0 W/m -3,5 C -2,1 C 0,0 km/h (0 Bft)
18/02/2012 03:20 -2,1 C 90 % 1023,0 hPa 0,0 mm 0,0 km/h (0 Bft) E-SE 112 0 min 0 W/m -3,5 C -2,1 C 0,0 km/h (0 Bft)
18/02/2012 03:30 -2,1 C 90 % 1022,8 hPa 0,0 mm 3,6 km/h (1 Bft) E 90 0 min 0 W/m -3,5 C -2,1 C 6,8 km/h (2 Bft)
18/02/2012 03:40 -2,1 C 90 % 1022,7 hPa 0,0 mm 0,4 km/h (0 Bft) E-SE 112 0 min 0 W/m -3,5 C -2,1 C 0,4 km/h (0 Bft)
18/02/2012 03:50 -2,0 C 91 % 1022,5 hPa 0,0 mm 0,0 km/h (0 Bft) E 90 0 min 0 W/m -3,3 C -2,0 C 0,0 km/h (0 Bft)
18/02/2012 04:00 -2,1 C 91 % 1022,5 hPa 0,0 mm 1,8 km/h (1 Bft) E 90 0 min 0 W/m -3,4 C -2,1 C 4,0 km/h (1 Bft)
18/02/2012 04:10 -2,1 C 91 % 1022,2 hPa 0,0 mm 1,1 km/h (1 Bft) E-SE 112 0 min 0 W/m -3,4 C -2,1 C 3,6 km/h (1 Bft)
18/02/2012 04:20 -2,1 C 91 % 1022,2 hPa 0,0 mm 0,4 km/h (0 Bft) E 90 0 min 0 W/m -3,4 C -2,1 C 0,4 km/h (0 Bft)
18/02/2012 04:30 -2,1 C 91 % 1022,1 hPa 0,0 mm 0,0 km/h (0 Bft) E 90 0 min 0 W/m -3,4 C -2,1 C 0,0 km/h (0 Bft)
18/02/2012 04:40 -2,2 C 91 % 1021,9 hPa 0,0 mm 1,1 km/h (1 Bft) E-NE 67 0 min 0 W/m -3,5 C -2,2 C 1,1 km/h (1 Bft)
18/02/2012 04:50 -2,2 C 91 % 1021,8 hPa 0,0 mm 1,4 km/h (1 Bft) E 90 0 min 0 W/m -3,5 C -2,2 C 4,0 km/h (1 Bft)
18/02/2012 05:00 -2,2 C 91 % 1021,9 hPa 0,0 mm 0,4 km/h (0 Bft) SE 135 0 min 0 W/m -3,5 C -2,2 C 3,6 km/h (1 Bft)
18/02/2012 05:10 -2,2 C 91 % 1021,7 hPa 0,0 mm 1,8 km/h (1 Bft) E-SE 112 0 min 0 W/m -3,5 C -2,2 C 6,5 km/h (2 Bft)
18/02/2012 05:20 -2,1 C 91 % 1021,6 hPa 0,0 mm 0,0 km/h (0 Bft) E 90 0 min 0 W/m -3,4 C -2,1 C 1,4 km/h (1 Bft)
18/02/2012 05:30 -1,9 C 91 % 1021,6 hPa 0,0 mm 1,1 km/h (1 Bft) E-SE 112 0 min 0 W/m -3,2 C -1,9 C 2,9 km/h (1 Bft)
18/02/2012 05:40 -1,9 C 91 % 1021,6 hPa 0,0 mm 0,4 km/h (0 Bft) SE 135 0 min 0 W/m -3,2 C -1,9 C 2,9 km/h (1 Bft)
18/02/2012 05:50 -1,9 C 91 % 1021,6 hPa 0,0 mm 0,0 km/h (0 Bft) SE 135 0 min 0 W/m -3,2 C -1,9 C 0,0 km/h (0 Bft)
18/02/2012 06:00 -2,1 C 91 % 1021,6 hPa 0,0 mm 0,0 km/h (0 Bft) E-SE 112 0 min 0 W/m -3,4 C -2,1 C 0,0 km/h (0 Bft)
18/02/2012 06:10 -2,2 C 91 % 1021,6 hPa 0,0 mm 0,0 km/h (0 Bft) E-NE 67 0 min 0 W/m -3,5 C -2,2 C 0,0 km/h (0 Bft)
18/02/2012 06:20 -2,3 C 91 % 1021,6 hPa 0,0 mm 0,0 km/h (0 Bft) E-SE 112 0 min 0 W/m -3,6 C -2,3 C 0,0 km/h (0 Bft)
18/02/2012 06:30 -2,4 C 91 % 1021,5 hPa 0,0 mm 0,0 km/h (0 Bft) E-SE 112 0 min 0 W/m -3,7 C -2,4 C 0,0 km/h (0 Bft)
18/02/2012 06:40 -2,5 C 92 % 1021,5 hPa 0,0 mm 0,0 km/h (0 Bft) E-SE 112 0 min 0 W/m -3,6 C -2,5 C 0,0 km/h (0 Bft)
18/02/2012 06:50 -2,5 C 91 % 1021,3 hPa 0,0 mm 0,0 km/h (0 Bft) E-SE 112 0 min 0 W/m -3,8 C -2,5 C 0,0 km/h (0 Bft)
18/02/2012 07:00 -2,6 C 91 % 1021,3 hPa 0,0 mm 0,0 km/h (0 Bft) E-SE 112 0 min 0 W/m -3,9 C -2,6 C 0,0 km/h (0 Bft)
18/02/2012 07:10 -2,7 C 92 % 1021,2 hPa 0,0 mm 0,0 km/h (0 Bft) E-NE 67 0 min 0 W/m -3,8 C -2,7 C 0,0 km/h (0 Bft)
18/02/2012 07:20 -2,6 C 92 % 1021,0 hPa 0,0 mm 0,0 km/h (0 Bft) E-SE 112 0 min 0 W/m -3,7 C -2,6 C 0,0 km/h (0 Bft)
18/02/2012 07:30 -2,6 C 92 % 1020,9 hPa 0,0 mm 0,0 km/h (0 Bft) S-SE 157 0 min 0 W/m -3,7 C -2,6 C 0,0 km/h (0 Bft)
18/02/2012 07:40 -2,6 C 92 % 1020,9 hPa 0,0 mm 0,7 km/h (0 Bft) S-SE 157 0 min 0 W/m -3,7 C -2,6 C 3,6 km/h (1 Bft)
18/02/2012 07:50 -2,5 C 92 % 1020,9 hPa 0,0 mm 0,0 km/h (0 Bft) E-SE 112 0 min 0 W/m -3,6 C -2,5 C 0,0 km/h (0 Bft)
18/02/2012 08:00 -2,5 C 92 % 1020,9 hPa 0,0 mm 0,7 km/h (0 Bft) E-SE 112 0 min 0 W/m -3,6 C -2,5 C 3,6 km/h (1 Bft)
18/02/2012 08:10 -2,4 C 92 % 1021,0 hPa 0,0 mm 0,4 km/h (0 Bft) SE 135 2 min 0 W/m -3,5 C -2,4 C 2,9 km/h (1 Bft)
18/02/2012 08:20 -2,2 C 92 % 1021,0 hPa 0,0 mm 0,4 km/h (0 Bft) E-SE 112 2 min 0 W/m -3,3 C -2,2 C 4,0 km/h (1 Bft)
18/02/2012 08:30 -2,2 C 92 % 1021,0 hPa 0,0 mm 0,0 km/h (0 Bft) E-SE 112 2 min 0 W/m -3,3 C -2,2 C 0,0 km/h (0 Bft)
18/02/2012 08:40 -2,2 C 92 % 1021,1 hPa 0,0 mm 0,4 km/h (0 Bft) SE 135 2 min 0 W/m -3,3 C -2,2 C 4,0 km/h (1 Bft)
18/02/2012 08:50 -1,8 C 92 % 1021,2 hPa 0,0 mm 1,8 km/h (1 Bft) SE 135 2 min 0 W/m -2,9 C -1,8 C 4,3 km/h (1 Bft)
18/02/2012 09:00 -1,4 C 93 % 1021,2 hPa 0,0 mm 0,0 km/h (0 Bft) SE 135 2 min 0 W/m -2,4 C -1,4 C 0,0 km/h (0 Bft)
18/02/2012 09:10 -0,9 C 93 % 1021,3 hPa 0,0 mm 0,0 km/h (0 Bft) SE 135 2 min 0 W/m -1,9 C -0,9 C 0,0 km/h (0 Bft)
18/02/2012 09:20 -0,2 C 93 % 1021,3 hPa 0,0 mm 0,0 km/h (0 Bft) SE 135 2 min 0 W/m -1,2 C -0,2 C 0,0 km/h (0 Bft)
18/02/2012 09:30 0,5 C 93 % 1021,4 hPa 0,0 mm 0,0 km/h (0 Bft) SE 135 2 min 0 W/m -0,5 C 0,5 C 0,0 km/h (0 Bft)
18/02/2012 09:40 1,3 C 92 % 1021,5 hPa 0,0 mm 0,0 km/h (0 Bft) SE 135 2 min 0 W/m 0,1 C 1,3 C 0,0 km/h (0 Bft)
18/02/2012 09:50 2,0 C 91 % 1021,5 hPa 0,0 mm 0,0 km/h (0 Bft) SE 135 2 min 0 W/m 0,7 C 2,0 C 0,0 km/h (0 Bft)
18/02/2012 10:00 2,6 C 90 % 1021,4 hPa 0,0 mm 0,0 km/h (0 Bft) SE 135 2 min 0 W/m 1,1 C 2,6 C 3,2 km/h (1 Bft)
18/02/2012 10:10 3,4 C 88 % 1021,5 hPa 0,0 mm 0,0 km/h (0 Bft) SE 135 2 min 0 W/m 1,6 C 3,4 C 0,0 km/h (0 Bft)
18/02/2012 10:20 4,4 C 87 % 1021,5 hPa 0,0 mm 0,0 km/h (0 Bft) SE 135 2 min 0 W/m 2,4 C 4,4 C 0,0 km/h (0 Bft)
18/02/2012 10:30 5,1 C 86 % 1021,6 hPa 0,0 mm 0,0 km/h (0 Bft) SE 135 2 min 0 W/m 3,0 C 5,1 C 0,0 km/h (0 Bft)
18/02/2012 10:40 5,8 C 83 % 1021,7 hPa 0,0 mm 0,0 km/h (0 Bft) N 360 2 min 0 W/m 3,1 C 5,8 C 0,0 km/h (0 Bft)
18/02/2012 10:50 6,4 C 83 % 1021,6 hPa 0,0 mm 1,8 km/h (1 Bft) SE 135 2 min 0 W/m 3,7 C 6,4 C 3,6 km/h (1 Bft)
18/02/2012 11:00 6,6 C 81 % 1021,7 hPa 0,0 mm 0,0 km/h (0 Bft) SE 135 2 min 0 W/m 3,6 C 6,6 C 0,0 km/h (0 Bft)
18/02/2012 11:10 6,8 C 80 % 1021,8 hPa 0,0 mm 0,0 km/h (0 Bft) SE 135 2 min 0 W/m 3,6 C 6,8 C 0,0 km/h (0 Bft)
18/02/2012 11:20 6,9 C 79 % 1021,7 hPa 0,0 mm 0,0 km/h (0 Bft) SE 135 2 min 0 W/m 3,5 C 6,9 C 0,0 km/h (0 Bft)
18/02/2012 11:30 6,9 C 79 % 1021,6 hPa 0,0 mm 0,0 km/h (0 Bft) SE 135 2 min 0 W/m 3,5 C 6,9 C 0,0 km/h (0 Bft)
18/02/2012 11:40 7,3 C 79 % 1021,5 hPa 0,0 mm 0,0 km/h (0 Bft) E-NE 67 2 min 0 W/m 3,9 C 7,3 C 0,0 km/h (0 Bft)
18/02/2012 11:50 7,8 C 77 % 1021,5 hPa 0,0 mm 1,1 km/h (1 Bft) E-NE 67 2 min 0 W/m 4,0 C 7,8 C 1,1 km/h (1 Bft)
18/02/2012 12:00 8,4 C 77 % 1021,4 hPa 0,0 mm 5,0 km/h (1 Bft) N-NE 22 2 min 0 W/m 4,6 C 7,9 C 6,8 km/h (2 Bft)
18/02/2012 12:10 9,4 C 78 % 1021,4 hPa 0,0 mm 0,0 km/h (0 Bft) NE 45 2 min 0 W/m 5,8 C 9,4 C 0,0 km/h (0 Bft)
18/02/2012 12:20 9,8 C 76 % 1021,3 hPa 0,0 mm 0,4 km/h (0 Bft) N-NO 337 2 min 0 W/m 5,8 C 9,8 C 4,0 km/h (1 Bft)
18/02/2012 12:30 10,1 C 77 % 1021,1 hPa 0,0 mm 0,0 km/h (0 Bft) E-NE 67 2 min 0 W/m 6,3 C 10,1 C 0,0 km/h (0 Bft)
18/02/2012 12:40 10,3 C 76 % 1021,1 hPa 0,0 mm 1,8 km/h (1 Bft) N-NE 22 2 min 0 W/m 6,3 C 10,3 C 1,8 km/h (1 Bft)
18/02/2012 12:50 10,3 C 76 % 1020,9 hPa 0,0 mm 3,2 km/h (1 Bft) NO 315 2 min 0 W/m 6,3 C 10,3 C 6,5 km/h (2 Bft)
18/02/2012 13:00 9,8 C 76 % 1020,7 hPa 0,0 mm 0,0 km/h (0 Bft) N-NO 337 2 min 0 W/m 5,8 C 9,8 C 0,0 km/h (0 Bft)
18/02/2012 13:10 9,7 C 77 % 1020,5 hPa 0,0 mm 0,0 km/h (0 Bft) NE 45 2 min 0 W/m 5,9 C 9,7 C 3,6 km/h (1 Bft)
18/02/2012 13:20 10,1 C 76 % 1020,4 hPa 0,0 mm 1,8 km/h (1 Bft) N-NO 337 2 min 0 W/m 6,1 C 10,1 C 6,8 km/h (2 Bft)
18/02/2012 13:30 10,2 C 76 % 1020,3 hPa 0,0 mm 1,1 km/h (1 Bft) NO 315 2 min 0 W/m 6,2 C 10,2 C 4,3 km/h (1 Bft)
18/02/2012 13:40 10,6 C 73 % 1020,4 hPa 0,0 mm 0,4 km/h (0 Bft) O-SO 247 2 min 0 W/m 6,0 C 10,6 C 4,3 km/h (1 Bft)
18/02/2012 13:50 10,8 C 75 % 1020,3 hPa 0,0 mm 1,1 km/h (1 Bft) N-NO 337 2 min 0 W/m 6,5 C 10,8 C 5,8 km/h (2 Bft)
18/02/2012 14:00 11,1 C 75 % 1020,1 hPa 0,0 mm 0,0 km/h (0 Bft) NO 315 2 min 0 W/m 6,8 C 11,1 C 3,6 km/h (1 Bft)
18/02/2012 14:10 11,2 C 74 % 1019,9 hPa 0,0 mm 3,6 km/h (1 Bft) N-NO 337 2 min 0 W/m 6,7 C 11,2 C 4,0 km/h (1 Bft)
18/02/2012 14:20 10,9 C 74 % 1019,8 hPa 0,0 mm 0,0 km/h (0 Bft) NO 315 2 min 0 W/m 6,5 C 10,9 C 0,0 km/h (0 Bft)
18/02/2012 14:30 10,6 C 74 % 1019,5 hPa 0,0 mm 0,0 km/h (0 Bft) O-NO 292 2 min 0 W/m 6,2 C 10,6 C 0,0 km/h (0 Bft)
18/02/2012 14:40 10,3 C 74 % 1019,4 hPa 0,0 mm 3,2 km/h (1 Bft) NO 315 2 min 0 W/m 5,9 C 10,3 C 4,3 km/h (1 Bft)
18/02/2012 14:50 10,2 C 74 % 1019,3 hPa 0,0 mm 1,4 km/h (1 Bft) NO 315 2 min 0 W/m 5,8 C 10,2 C 4,0 km/h (1 Bft)
18/02/2012 15:00 9,9 C 74 % 1019,2 hPa 0,0 mm 5,0 km/h (1 Bft) NO 315 2 min 0 W/m 5,5 C 9,6 C 10,4 km/h (2 Bft)
18/02/2012 15:10 9,7 C 75 % 1019,0 hPa 0,0 mm 0,7 km/h (0 Bft) N 360 2 min 0 W/m 5,5 C 9,7 C 3,6 km/h (1 Bft)
18/02/2012 15:20 9,6 C 75 % 1018,8 hPa 0,0 mm 0,7 km/h (0 Bft) N-NE 22 2 min 0 W/m 5,4 C 9,6 C 3,2 km/h (1 Bft)
18/02/2012 15:30 9,6 C 75 % 1018,7 hPa 0,0 mm 2,2 km/h (1 Bft) O-NO 292 2 min 0 W/m 5,4 C 9,6 C 4,0 km/h (1 Bft)
18/02/2012 15:40 9,6 C 76 % 1018,6 hPa 0,0 mm 0,0 km/h (0 Bft) NO 315 2 min 0 W/m 5,6 C 9,6 C 0,0 km/h (0 Bft)
18/02/2012 15:50 9,6 C 76 % 1018,5 hPa 0,0 mm 0,4 km/h (0 Bft) NO 315 2 min 0 W/m 5,6 C 9,6 C 3,2 km/h (1 Bft)
18/02/2012 16:00 9,6 C 76 % 1018,4 hPa 0,0 mm 1,4 km/h (1 Bft) NO 315 2 min 0 W/m 5,6 C 9,6 C 1,4 km/h (1 Bft)
18/02/2012 16:10 9,4 C 76 % 1018,5 hPa 0,0 mm 1,1 km/h (1 Bft) O-SO 247 2 min 0 W/m 5,4 C 9,4 C 1,1 km/h (1 Bft)
18/02/2012 16:20 9,0 C 76 % 1018,5 hPa 0,0 mm 0,0 km/h (0 Bft) O-SO 247 2 min 0 W/m 5,0 C 9,0 C 0,0 km/h (0 Bft)
18/02/2012 16:30 8,8 C 78 % 1018,4 hPa 0,0 mm 0,0 km/h (0 Bft) O-NO 292 2 min 0 W/m 5,2 C 8,8 C 0,0 km/h (0 Bft)
18/02/2012 16:40 8,5 C 77 % 1018,4 hPa 0,0 mm 0,0 km/h (0 Bft) O 270 2 min 0 W/m 4,7 C 8,5 C 0,0 km/h (0 Bft)
18/02/2012 16:50 8,3 C 78 % 1018,3 hPa 0,0 mm 1,4 km/h (1 Bft) O-SO 247 2 min 0 W/m 4,7 C 8,3 C 1,4 km/h (1 Bft)
18/02/2012 17:00 8,0 C 79 % 1018,3 hPa 0,0 mm 0,0 km/h (0 Bft) O-SO 247 2 min 0 W/m 4,6 C 8,0 C 4,0 km/h (1 Bft)
18/02/2012 17:10 7,9 C 80 % 1018,2 hPa 0,0 mm 0,0 km/h (0 Bft) O 270 2 min 0 W/m 4,7 C 7,9 C 0,0 km/h (0 Bft)
18/02/2012 17:20 7,8 C 80 % 1018,2 hPa 0,0 mm 0,4 km/h (0 Bft) O-SO 247 2 min 0 W/m 4,6 C 7,8 C 0,4 km/h (0 Bft)
18/02/2012 17:30 7,7 C 80 % 1018,2 hPa 0,0 mm 6,8 km/h (2 Bft) O 270 2 min 0 W/m 4,5 C 6,6 C 10,1 km/h (2 Bft)
18/02/2012 17:40 7,5 C 81 % 1018,2 hPa 0,0 mm 0,0 km/h (0 Bft) O 270 2 min 0 W/m 4,5 C 7,5 C 3,2 km/h (1 Bft)
18/02/2012 17:50 7,4 C 81 % 1018,1 hPa 0,0 mm 0,0 km/h (0 Bft) O-SO 247 2 min 0 W/m 4,4 C 7,4 C 0,0 km/h (0 Bft)
18/02/2012 18:00 7,3 C 81 % 1018,1 hPa 0,0 mm 0,0 km/h (0 Bft) O 270 2 min 0 W/m 4,3 C 7,3 C 0,0 km/h (0 Bft)
18/02/2012 18:10 7,1 C 82 % 1018,2 hPa 0,0 mm 1,1 km/h (1 Bft) O 270 2 min 0 W/m 4,2 C 7,1 C 4,0 km/h (1 Bft)
18/02/2012 18:20 6,9 C 82 % 1018,2 hPa 0,0 mm 2,2 km/h (1 Bft) O 270 0 min 0 W/m 4,0 C 6,9 C 7,9 km/h (2 Bft)
18/02/2012 18:30 6,9 C 82 % 1018,2 hPa 0,0 mm 0,0 km/h (0 Bft) O-NO 292 0 min 0 W/m 4,0 C 6,9 C 0,0 km/h (0 Bft)
18/02/2012 18:40 6,8 C 83 % 1018,2 hPa 0,0 mm 0,0 km/h (0 Bft) O-SO 247 0 min 0 W/m 4,1 C 6,8 C 0,0 km/h (0 Bft)
18/02/2012 18:50 6,6 C 83 % 1018,3 hPa 0,0 mm 0,0 km/h (0 Bft) O 270 0 min 0 W/m 3,9 C 6,6 C 0,0 km/h (0 Bft)
18/02/2012 19:00 6,5 C 84 % 1018,4 hPa 0,0 mm 0,0 km/h (0 Bft) O 270 0 min 0 W/m 4,0 C 6,5 C 0,0 km/h (0 Bft)
18/02/2012 19:10 6,4 C 85 % 1018,3 hPa 0,0 mm 0,0 km/h (0 Bft) O-SO 247 0 min 0 W/m 4,1 C 6,4 C 0,0 km/h (0 Bft)
18/02/2012 19:20 6,3 C 86 % 1018,4 hPa 0,0 mm 1,8 km/h (1 Bft) S-SO 202 0 min 0 W/m 4,1 C 6,3 C 4,7 km/h (1 Bft)
18/02/2012 19:30 6,3 C 87 % 1018,4 hPa 0,0 mm 0,0 km/h (0 Bft) O-SO 247 0 min 0 W/m 4,3 C 6,3 C 0,0 km/h (0 Bft)
18/02/2012 19:40 6,2 C 88 % 1018,5 hPa 0,0 mm 0,0 km/h (0 Bft) O-SO 247 0 min 0 W/m 4,4 C 6,2 C 0,0 km/h (0 Bft)
18/02/2012 19:50 6,1 C 89 % 1018,6 hPa 0,0 mm 0,4 km/h (0 Bft) O-SO 247 0 min 0 W/m 4,4 C 6,1 C 4,3 km/h (1 Bft)
18/02/2012 20:00 5,9 C 89 % 1018,5 hPa 0,0 mm 1,8 km/h (1 Bft) SO 225 0 min 0 W/m 4,2 C 5,9 C 3,6 km/h (1 Bft)
18/02/2012 20:10 5,8 C 90 % 1018,6 hPa 0,0 mm 0,4 km/h (0 Bft) SO 225 0 min 0 W/m 4,3 C 5,8 C 3,6 km/h (1 Bft)
18/02/2012 20:20 5,8 C 90 % 1018,6 hPa 0,0 mm 0,7 km/h (0 Bft) O-SO 247 0 min 0 W/m 4,3 C 5,8 C 0,7 km/h (0 Bft)
18/02/2012 20:30 5,7 C 90 % 1018,4 hPa 0,0 mm 0,4 km/h (0 Bft) SO 225 0 min 0 W/m 4,2 C 5,7 C 3,2 km/h (1 Bft)
18/02/2012 20:40 5,7 C 90 % 1018,5 hPa 0,0 mm 0,4 km/h (0 Bft) SO 225 0 min 0 W/m 4,2 C 5,7 C 0,4 km/h (0 Bft)
18/02/2012 20:50 5,6 C 91 % 1018,5 hPa 0,0 mm 0,0 km/h (0 Bft) SO 225 0 min 0 W/m 4,2 C 5,6 C 0,0 km/h (0 Bft)
18/02/2012 21:00 5,6 C 91 % 1018,6 hPa 0,0 mm 0,0 km/h (0 Bft) SO 225 0 min 0 W/m 4,2 C 5,6 C 0,0 km/h (0 Bft)
18/02/2012 21:10 5,5 C 91 % 1018,7 hPa 0,0 mm 0,7 km/h (0 Bft) O-SO 247 0 min 0 W/m 4,2 C 5,5 C 6,8 km/h (2 Bft)
18/02/2012 21:20 5,5 C 92 % 1018,8 hPa 0,0 mm 1,4 km/h (1 Bft) SO 225 0 min 0 W/m 4,3 C 5,5 C 6,1 km/h (2 Bft)
18/02/2012 21:30 5,5 C 92 % 1018,7 hPa 0,0 mm 1,8 km/h (1 Bft) SO 225 0 min 0 W/m 4,3 C 5,5 C 1,8 km/h (1 Bft)
18/02/2012 21:40 5,4 C 92 % 1018,7 hPa 0,0 mm 0,0 km/h (0 Bft) O-SO 247 0 min 0 W/m 4,2 C 5,4 C 0,0 km/h (0 Bft)
18/02/2012 21:50 5,4 C 92 % 1018,8 hPa 0,0 mm 2,9 km/h (1 Bft) SO 225 0 min 0 W/m 4,2 C 5,4 C 4,3 km/h (1 Bft)
18/02/2012 22:00 5,3 C 93 % 1018,9 hPa 0,0 mm 1,1 km/h (1 Bft) O-SO 247 0 min 0 W/m 4,3 C 5,3 C 2,9 km/h (1 Bft)
18/02/2012 22:10 5,3 C 93 % 1018,9 hPa 0,0 mm 2,9 km/h (1 Bft) SO 225 0 min 0 W/m 4,3 C 5,3 C 4,3 km/h (1 Bft)
18/02/2012 22:20 5,2 C 93 % 1019,0 hPa 0,0 mm 2,9 km/h (1 Bft) O-SO 247 0 min 0 W/m 4,2 C 5,2 C 4,0 km/h (1 Bft)
18/02/2012 22:30 5,2 C 93 % 1018,9 hPa 0,0 mm 0,7 km/h (0 Bft) S-SO 202 0 min 0 W/m 4,2 C 5,2 C 3,6 km/h (1 Bft)
18/02/2012 22:40 5,2 C 92 % 1019,0 hPa 0,0 mm 2,9 km/h (1 Bft) SO 225 0 min 0 W/m 4,0 C 5,2 C 4,0 km/h (1 Bft)
18/02/2012 22:50 5,2 C 92 % 1018,9 hPa 0,0 mm 2,5 km/h (1 Bft) SO 225 0 min 0 W/m 4,0 C 5,2 C 4,3 km/h (1 Bft)
18/02/2012 23:00 5,2 C 91 % 1018,8 hPa 0,0 mm 4,3 km/h (1 Bft) SO 225 0 min 0 W/m 3,9 C 5,2 C 7,2 km/h (2 Bft)
18/02/2012 23:10 5,2 C 91 % 1018,7 hPa 0,0 mm 2,9 km/h (1 Bft) SO 225 0 min 0 W/m 3,9 C 5,2 C 6,5 km/h (2 Bft)
18/02/2012 23:20 5,2 C 90 % 1018,8 hPa 0,0 mm 5,0 km/h (1 Bft) SO 225 0 min 0 W/m 3,7 C 4,3 C 5,0 km/h (1 Bft)
18/02/2012 23:30 5,2 C 90 % 1018,8 hPa 0,0 mm 5,4 km/h (2 Bft) SO 225 0 min 0 W/m 3,7 C 4,2 C 8,6 km/h (2 Bft)
18/02/2012 23:40 5,2 C 90 % 1018,7 hPa 0,0 mm 5,8 km/h (2 Bft) SO 225 0 min 0 W/m 3,7 C 4,0 C 6,8 km/h (2 Bft)
18/02/2012 23:50 5,2 C 89 % 1018,6 hPa 0,0 mm 4,0 km/h (1 Bft) SO 225 0 min 0 W/m 3,5 C 5,2 C 7,2 km/h (2 Bft)
_ Min-Heure 07:10 13:40 18:00 - 21:40 - - - - 07:00 07:10 21:40
Minimum _ -2,7 C 73 % 1018,1 hPa - 0,0 km/h (0 Bft) - - - - -3,9 C -2,7 C 0,0 km/h (0 Bft)
_ Max-Heure 14:10 22:30 00:00 23:50 17:30 - - 18:10 23:50 14:00 14:10 15:00
Maximum _ 11,2 C 93 % 1024,2 hPa 0,0 mm 6,8 km/h
O (2 Bft)
- - 2 min 0 W/m 6,8 C 11,2 C 10,4 km/h
NO (2 Bft)
Moyenne _ 3,6 C 86 % 1020,6 hPa #0,0 mm 0,8 km/h (0 Bft) E-SE - #2:02 h 0 W/m 1,4 C 3,6 C 2,0 km/h (1 Bft)
Saint Bonnet de Bellac- Haute Vienne - France